TimeCST,TemperatureF,Dew PointF,Humidity,Sea Level PressureIn,VisibilityMPH,Wind Direction,Wind SpeedMPH,Gust SpeedMPH,PrecipitationIn,Events,Conditions,WindDirDegrees,DateUTC
12:55 AM,47.8,44.2,87,30.27,10.0,Calm,Calm,-,N/A,,Scattered Clouds,0,2012-12-05 06:55:00
1:55 AM,45.5,44.4,96,30.28,10.0,Calm,Calm,-,N/A,,Mostly Cloudy,0,2012-12-05 07:55:00
2:55 AM,45.5,44.8,97,30.28,10.0,North,3.5,-,N/A,,Mostly Cloudy,10,2012-12-05 08:55:00
3:55 AM,43.2,43.0,99,30.29,10.0,NNE,3.5,-,N/A,,Clear,30,2012-12-05 09:55:00
4:55 AM,42.4,42.3,99,30.31,10.0,NNE,3.5,-,N/A,,Clear,20,2012-12-05 10:55:00
5:55 AM,42.6,42.4,99,30.32,10.0,Variable,3.5,-,N/A,,Partly Cloudy,0,2012-12-05 11:55:00
6:55 AM,39.6,39.6,100,30.33,5.0,Calm,Calm,-,N/A,,Clear,0,2012-12-05 12:55:00
8:55 AM,48.9,45.9,89,30.35,10.0,NE,9.2,-,N/A,,Clear,50,2012-12-05 14:55:00
9:55 AM,53.1,44.2,72,30.35,10.0,NE,6.9,-,N/A,,Clear,50,2012-12-05 15:55:00
10:55 AM,55.9,42.1,60,30.32,10.0,NE,9.2,-,N/A,,Clear,50,2012-12-05 16:55:00
11:55 AM,57.9,39.2,50,30.29,10.0,ENE,10.4,-,N/A,,Clear,60,2012-12-05 17:55:00
12:55 PM,59.5,34.5,39,30.27,10.0,NE,10.4,-,N/A,,Clear,40,2012-12-05 18:55:00
1:55 PM,59.7,35.2,40,30.25,10.0,ENE,8.1,-,N/A,,Clear,70,2012-12-05 19:55:00
2:55 PM,59.5,34.5,39,30.24,10.0,NE,11.5,-,N/A,,Clear,50,2012-12-05 20:55:00
3:55 PM,55.6,37.6,51,30.24,10.0,ENE,6.9,-,N/A,,Clear,60,2012-12-05 21:55:00
4:55 PM,50.4,36.3,59,30.24,10.0,NE,5.8,-,N/A,,Clear,50,2012-12-05 22:55:00
5:55 PM,47.5,35.8,64,30.23,10.0,NNE,3.5,-,N/A,,Clear,30,2012-12-05 23:55:00
6:55 PM,44.4,34.7,69,30.22,10.0,NE,5.8,-,N/A,,Clear,50,2012-12-06 00:55:00
7:55 PM,45.0,33.8,65,30.22,10.0,NE,6.9,-,N/A,,Clear,50,2012-12-06 01:55:00
8:55 PM,43.9,34.5,70,30.21,10.0,NE,6.9,-,N/A,,Clear,50,2012-12-06 02:55:00
9:55 PM,43.2,34.0,70,30.19,10.0,NE,5.8,-,N/A,,Clear,50,2012-12-06 03:55:00
10:55 PM,42.6,33.8,71,30.18,10.0,ENE,5.8,-,N/A,,Clear,60,2012-12-06 04:55:00
11:55 PM,41.5,34.0,75,30.16,10.0,ENE,6.9,-,N/A,,Clear,60,2012-12-06 05:55:00